Location: Appeville
(49.3218°N, 1.3427°W)
Time: 14:14:02
(UTC+00:00)

USA 234 - Pass Details

Date: 08 December 2019
Orbit: 1099 x 1108 km, 123.0° (Epoch: 16 January)

Event Time Altitude Azimuth Distance (km) Brightness Sun altitude
Rises 04:26:57 0° 56° (NE) 3,925 6.9 -31.5°
Reaches altitude 10° 04:29:27 10° 57° (ENE) 2,966 6.2 -31.1°
Maximum altitude 04:36:01 77° 144° (SE) 1,133 3.2 -30.0°
Enters shadow 04:37:00 65° 205° (SSW) 1,206 3.2 -29.9°
